Paris / Charles De Gaulle, France

11:05 AM CEST on August 20, 2017 (GMT +0200)
Charles de Gaulle

Weather History for LFPG - August, 2014

Change the Weather History Date:

Saturday, August 30, 2014

  Actual Average Record
Temperature  
Mean Temperature 64 °F -  
Max Temperature 71 °F 68 °F 91 °F (2015)
Min Temperature 56 °F 52 °F 48 °F (2007)
Degree Days  
Heating Degree Days 2    
Growing Degree Days 14 (Base 50)    
Moisture  
Dew Point 55 °F    
Average Humidity 72    
Maximum Humidity 88    
Minimum Humidity 52    
Precipitation  
Precipitation 0.00 in - - ()
Sea Level Pressure  
Sea Level Pressure 30.10 in    
Wind  
Wind Speed 7 mph ()    
Max Wind Speed 14 mph    
Max Gust Speed -    
Visibility 9.5 miles    
Events Rain    
Averages and records for this station are not official NWS values.
T = Trace of Precipitation, MM = Missing Value Source: Averaged Metar Reports

Daily Weather History Graph

Daily Weather History Graph

Search for Another Location

Airport or City:

Trip Planner

Search our weather history database for the weather conditions in past years. The results will help you decide how hot, cold, wet, or windy it might be!

Date:

Astronomy

Aug. 30, 2014 Rise Set
Actual Time 7:03 AM CEST 8:36 PM CEST
Civil Twilight 6:30 AM CEST 9:09 PM CEST
Nautical Twilight 5:49 AM CEST 9:50 PM CEST
Astronomical Twilight 5:05 AM CEST 10:34 PM CEST
Moon 12:02 PM CEST (8/30) 10:33 PM CEST (8/30)
Length of Visible Light 14h 39m
Length of Day
13h 33m
Waxing Crescent, 20% of the Moon is Illuminated
Aug 30
Waxing Crescent
Sep 2
First Quarter
Sep 9
Full
Sep 16
Last Quarter
Sep 24
New

Hourly Weather History & Observations

Time (CEST) Temp. Dew Point Humidity Pressure Visibility Wind Dir Wind Speed Gust Speed Precip Events Conditions
12:00 AM 65 °F 52 °F 54% 30.10 in 19 mi West 5.8 mph - -   Mostly Cloudy
12:00 AM 64.4 °F 51.8 °F 64% 30.09 in 6.2 mi West 5.8 mph - N/A   Mostly Cloudy
12:30 AM 62.6 °F 51.8 °F 68% 30.09 in - West 4.6 mph - N/A   Clear
1:00 AM 63 °F 53 °F 61% 30.11 in 16 mi West 5.8 mph - -   Mostly Cloudy
1:00 AM 62.6 °F 53.6 °F 72% 30.09 in 6.2 mi West 5.8 mph - N/A   Mostly Cloudy
1:30 AM 62.6 °F 53.6 °F 72% 30.09 in - WSW 4.6 mph - N/A   Clear
2:00 AM 61 °F 53 °F 67% 30.11 in 16 mi West 5.8 mph - -   Scattered Clouds
2:00 AM 60.8 °F 53.6 °F 77% 30.09 in - West 5.8 mph - N/A   Clear
2:30 AM 60.8 °F 53.6 °F 77% 30.09 in - West 5.8 mph - N/A   Clear
3:00 AM 60 °F 53 °F 70% 30.12 in 16 mi West 4.6 mph - -   Scattered Clouds
3:00 AM 59.0 °F 51.8 °F 77% 30.09 in - West 4.6 mph - N/A   Clear
3:30 AM 59.0 °F 53.6 °F 82% 30.09 in - West 5.8 mph - N/A   Clear
4:00 AM 60 °F 53 °F 72% 30.11 in 16 mi WSW 5.8 mph - -   Scattered Clouds
4:00 AM 59.0 °F 53.6 °F 82% 30.09 in - WSW 6.9 mph - N/A   Clear
4:30 AM 59.0 °F 53.6 °F 82% 30.09 in - WSW 4.6 mph - N/A   Clear
5:00 AM 59.0 °F 53.6 °F 82% 30.09 in - WSW 4.6 mph - N/A   Clear
5:30 AM 59.0 °F 53.6 °F 82% 30.09 in - WSW 3.5 mph - N/A   Clear
6:00 AM 58 °F 53 °F 78% 30.11 in 9 mi WSW 5.8 mph - -   Clear
6:00 AM 57.2 °F 53.6 °F 88% 30.09 in - WSW 5.8 mph - N/A   Clear
6:30 AM 57.2 °F 53.6 °F 88% 30.09 in 6.2 mi SW 3.5 mph - N/A   Scattered Clouds
7:00 AM 57 °F 53 °F 82% 30.11 in 9 mi WSW 3.5 mph - -   Scattered Clouds
7:00 AM 57.2 °F 53.6 °F 88% 30.09 in 6.2 mi WSW 3.5 mph - N/A   Partly Cloudy
7:30 AM 57.2 °F 53.6 °F 88% 30.09 in - SW 3.5 mph - N/A   Clear
8:00 AM 59 °F 54 °F 79% 30.12 in 9 mi SSW 4.6 mph - -   Mostly Cloudy
8:00 AM 59.0 °F 53.6 °F 82% 30.09 in - SSW 4.6 mph - N/A   Clear
8:30 AM 59.0 °F 55.4 °F 88% 30.12 in - SSW 6.9 mph - N/A   Clear
9:00 AM 60 °F 55 °F 78% 30.12 in 9 mi SSW 8.1 mph - -   Mostly Cloudy
9:00 AM 60.8 °F 55.4 °F 82% 30.12 in - SSW 8.1 mph - N/A   Clear
9:30 AM 60.8 °F 55.4 °F 82% 30.12 in - SW 8.1 mph - N/A   Clear
10:00 AM 62 °F 56 °F 74% 30.13 in 9 mi WSW 9.2 mph - -   Scattered Clouds
10:00 AM 62.6 °F 55.4 °F 77% 30.12 in 6.2 mi WSW 9.2 mph - N/A   Mostly Cloudy
10:30 AM 66.2 °F 57.2 °F 73% 30.12 in 6.2 mi WSW 10.4 mph - N/A   Mostly Cloudy
11:00 AM 65 °F 56 °F 64% 30.13 in 16 mi WSW 10.4 mph - -   Scattered Clouds
11:00 AM 64.4 °F 55.4 °F 73% 30.12 in 6.2 mi WSW 10.4 mph - N/A   Mostly Cloudy
11:30 AM 64.4 °F 55.4 °F 73% 30.12 in 6.2 mi West 6.9 mph - N/A   Mostly Cloudy
12:00 PM 65 °F 56 °F 65% 30.12 in 16 mi WSW 10.4 mph - -   Scattered Clouds
12:00 PM 64.4 °F 55.4 °F 73% 30.12 in 6.2 mi WSW 11.5 mph - N/A   Mostly Cloudy
12:30 PM 64.4 °F 55.4 °F 73% 30.12 in 6.2 mi WSW 10.4 mph - N/A   Mostly Cloudy
1:00 PM 66 °F 55 °F 59% 30.11 in 16 mi WSW 10.4 mph - -   Scattered Clouds
1:00 PM 66.2 °F 55.4 °F 68% 30.09 in 6.2 mi WSW 10.4 mph - N/A   Mostly Cloudy
1:30 PM 68.0 °F 55.4 °F 64% 30.09 in 6.2 mi WSW 11.5 mph - N/A   Mostly Cloudy
2:00 PM 69 °F 55 °F 52% 30.10 in 16 mi West 12.7 mph - -   Scattered Clouds
2:00 PM 68.0 °F 55.4 °F 64% 30.09 in 6.2 mi West 12.7 mph - N/A   Mostly Cloudy
2:30 PM 69.8 °F 55.4 °F 60% 30.09 in 6.2 mi WSW 10.4 mph - N/A   Scattered Clouds
3:00 PM 69 °F 55 °F 52% 30.10 in 16 mi West 9.2 mph - -   Mostly Cloudy
3:00 PM 69.8 °F 55.4 °F 60% 30.09 in 6.2 mi West 9.2 mph - N/A   Mostly Cloudy
3:30 PM 69.8 °F 55.4 °F 60% 30.09 in 6.2 mi WNW 4.6 mph - N/A   Mostly Cloudy
4:00 PM 69 °F 56 °F 54% 30.09 in 16 mi West 9.2 mph - -   Mostly Cloudy
4:00 PM 69.8 °F 57.2 °F 64% 30.09 in 6.2 mi West 9.2 mph - N/A   Mostly Cloudy
4:30 PM 69.8 °F 57.2 °F 64% 30.09 in 6.2 mi WNW 10.4 mph - N/A   Mostly Cloudy
5:00 PM 68 °F 57 °F 60% 30.09 in 16 mi WNW 12.7 mph - -   Overcast
5:00 PM 68.0 °F 59.0 °F 73% 30.09 in 6.2 mi WNW 12.7 mph - N/A   Mostly Cloudy
5:30 PM 68.0 °F 57.2 °F 68% 30.09 in 6.2 mi WNW 11.5 mph - N/A   Mostly Cloudy
6:00 PM 67 °F 56 °F 59% 30.09 in 16 mi West 11.5 mph - -   Overcast
6:00 PM 66.2 °F 55.4 °F 68% 30.09 in 6.2 mi West 11.5 mph - N/A   Mostly Cloudy
6:30 PM 66.2 °F 55.4 °F 68% 30.06 in 6.2 mi West 8.1 mph - N/A   Mostly Cloudy
7:00 PM 67 °F 56 °F 60% 30.07 in 16 mi West 11.5 mph - -   Overcast
7:00 PM 66.2 °F 57.2 °F 73% 30.06 in 6.2 mi West 11.5 mph - N/A   Mostly Cloudy
7:30 PM 66.2 °F 55.4 °F 68% 30.06 in 6.2 mi West 10.4 mph - N/A   Mostly Cloudy
8:00 PM 66 °F 55 °F 60% 30.08 in 16 mi West 10.4 mph - -   Overcast
8:00 PM 66.2 °F 55.4 °F 68% 30.06 in 6.2 mi West 10.4 mph - N/A   Mostly Cloudy
8:30 PM 66.2 °F 55.4 °F 68% 30.06 in 6.2 mi West 8.1 mph - N/A   Mostly Cloudy
9:00 PM 65 °F 56 °F 65% 30.09 in 16 mi West 11.5 mph - -   Overcast
9:00 PM 64.4 °F 55.4 °F 73% 30.06 in 6.2 mi West 11.5 mph - N/A   Mostly Cloudy
9:30 PM 64.4 °F 55.4 °F 73% 30.09 in 6.2 mi West 8.1 mph - N/A   Mostly Cloudy
10:00 PM 64 °F 57 °F 70% 30.10 in 12 mi West 10.4 mph - - Rain Light Rain
10:00 PM 64.4 °F 57.2 °F 77% 30.09 in 6.2 mi West 10.4 mph - N/A Rain Light Rain
10:30 PM 60.8 °F 57.2 °F 88% 30.09 in 5.0 mi NW 13.8 mph - N/A   Light Drizzle
11:00 PM 60 °F 56 °F 83% 30.10 in 12 mi West 6.9 mph - - Rain Light Drizzle
11:00 PM 60.8 °F 55.4 °F 82% 30.09 in 6.2 mi West 6.9 mph - N/A   Mostly Cloudy
11:30 PM 60.8 °F 55.4 °F 82% 30.09 in 6.2 mi West 8.1 mph - N/A   Mostly Cloudy